Location: Waco, TX
(31.5480°N, 97.1670°W)
Time: 00:30:21
(UTC-06:00)

ISS - Pass Details

Date: 07 December 2017
Orbit: 403 x 407 km, 51.6° (Epoch: 12 December)

Event Time Altitude Azimuth Distance (km) Brightness Sun altitude
Rises 14:17:36 0° 232° (SW) 2,314 1.0 28.9°
Reaches altitude 10° 14:19:42 10° 236° (WSW) 1,457 0.2 28.7°
Maximum altitude 14:22:55 57° 316° (NW) 482 -3.2 28.3°
Drops below altitude 10° 14:26:10 10° 37° (NE) 1,464 -1.5 28.0°
Sets 14:28:16 0° 41° (NE) 2,326 -0.5 27.7°
